• In United Kingdom
  • List of Countries
  • For 7 days
  • Water Temperature
  • Satellite Maps
  • Weather Map
  • Weather Widgets
  • user-avatar
    Login

    Hourly Weather Cancún

    Today, 20 September, Wednesday

    Time Temperature Precipitation Wind Pressure Humidity
    00:00 +28°C° 0 mm 3 mps 759 mmHg 89%
    01:00 +28°C° 0.2 mm 3 mps 759 mmHg 89%
    02:00 +28°C° 0.2 mm 3 mps 758 mmHg 89%
    03:00 +27°C° 0.2 mm 2 mps 758 mmHg 89%
    04:00 +27°C° 0 mm 2 mps 758 mmHg 89%
    05:00 +28°C° 0 mm 2 mps 758 mmHg 89%
    06:00 +28°C° 0 mm 2 mps 758 mmHg 88%
    07:00 +29°C° 0.5 mm 2 mps 759 mmHg 85%
    08:00 +30°C° 0.5 mm 3 mps 759 mmHg 82%
    09:00 +31°C° 0.5 mm 3 mps 759 mmHg 78%
    10:00 +31°C° 0.9 mm 3 mps 759 mmHg 79%
    11:00 +31°C° 0.9 mm 3 mps 759 mmHg 80%
    12:00 +31°C° 0.9 mm 3 mps 759 mmHg 81%
    13:00 +31°C° 0.6 mm 2 mps 758 mmHg 80%
    14:00 +32°C° 0.6 mm 2 mps 758 mmHg 79%
    15:00 +32°C° 0.6 mm 2 mps 757 mmHg 79%
    16:00 +31°C° 0.3 mm 2 mps 757 mmHg 81%
    17:00 +30°C° 0.3 mm 2 mps 757 mmHg 84%
    18:00 +28°C° 0.3 mm 2 mps 757 mmHg 87%
    19:00 +28°C° 0.2 mm 2 mps 758 mmHg 87%
    20:00 +28°C° 0.2 mm 2 mps 758 mmHg 87%
    21:00 +28°C° 0.2 mm 3 mps 759 mmHg 88%
    22:00 +28°C° 0.5 mm 3 mps 759 mmHg 88%
    23:00 +28°C° 0.5 mm 3 mps 759 mmHg 89%

    Tomorrow, 21 September, Thursday

    Time Temperature Precipitation Wind Pressure Humidity
    00:00 +27°C° 0.5 mm 3 mps 759 mmHg 89%
    01:00 +27°C° 0.1 mm 3 mps 758 mmHg 89%
    02:00 +27°C° 0.1 mm 3 mps 758 mmHg 90%
    03:00 +27°C° 0.1 mm 2 mps 758 mmHg 90%
    04:00 +27°C° 0 mm 2 mps 758 mmHg 90%
    05:00 +27°C° 0 mm 2 mps 758 mmHg 90%
    06:00 +27°C° 0 mm 2 mps 758 mmHg 90%
    07:00 +29°C° 0.1 mm 2 mps 758 mmHg 82%
    08:00 +31°C° 0.1 mm 2 mps 758 mmHg 75%
    09:00 +32°C° 0.1 mm 2 mps 759 mmHg 67%
    10:00 +32°C° 0.4 mm 2 mps 759 mmHg 70%
    11:00 +34°C° 0.4 mm 2 mps 758 mmHg 73%
    12:00 +34°C° 0.4 mm 2 mps 758 mmHg 75%
    13:00 +32°C° 0.7 mm 2 mps 757 mmHg 76%
    14:00 +32°C° 0.7 mm 2 mps 757 mmHg 76%
    15:00 +33°C° 0.7 mm 3 mps 756 mmHg 77%
    16:00 +31°C° 0.1 mm 3 mps 756 mmHg 79%
    17:00 +30°C° 0.1 mm 3 mps 756 mmHg 81%
    18:00 +29°C° 0.1 mm 3 mps 756 mmHg 83%
    19:00 +29°C° 0.1 mm 3 mps 757 mmHg 84%
    20:00 +28°C° 0.1 mm 3 mps 757 mmHg 85%
    21:00 +28°C° 0.1 mm 3 mps 758 mmHg 86%
    22:00 +28°C° 0 mm 2 mps 757 mmHg 86%
    23:00 +28°C° 0 mm 2 mps 757 mmHg 87%

    Day after tomorrow, 22 September, Friday

    Time Temperature Precipitation Wind Pressure Humidity
    00:00 +28°C° 0 mm 2 mps 757 mmHg 87%
    01:00 +28°C° 0 mm 2 mps 757 mmHg 88%
    02:00 +27°C° 0 mm 2 mps 756 mmHg 88%
    03:00 +27°C° 0 mm 2 mps 756 mmHg 89%
    04:00 +27°C° 0 mm 2 mps 756 mmHg 89%
    05:00 +27°C° 0 mm 2 mps 756 mmHg 89%
    06:00 +27°C° 0 mm 2 mps 757 mmHg 89%
    07:00 +29°C° 0 mm 2 mps 757 mmHg 80%
    08:00 +31°C° 0 mm 2 mps 757 mmHg 72%
    09:00 +34°C° 0 mm 2 mps 757 mmHg 63%
    10:00 +34°C° 0 mm 2 mps 757 mmHg 60%
    11:00 +35°C° 0 mm 3 mps 757 mmHg 57%
    12:00 +36°C° 0 mm 3 mps 757 mmHg 54%
    13:00 +35°C° 0.3 mm 3 mps 756 mmHg 63%
    14:00 +34°C° 0.3 mm 3 mps 755 mmHg 71%
    15:00 +32°C° 0.3 mm 4 mps 755 mmHg 80%
    16:00 +31°C° 0.2 mm 3 mps 755 mmHg 82%
    17:00 +30°C° 0.2 mm 3 mps 755 mmHg 85%
    18:00 +29°C° 0.2 mm 3 mps 755 mmHg 87%
    19:00 +28°C° 0 mm 3 mps 756 mmHg 87%
    20:00 +28°C° 0 mm 3 mps 756 mmHg 86%
    21:00 +28°C° 0 mm 3 mps 757 mmHg 86%
    22:00 +28°C° 0 mm 3 mps 756 mmHg 86%
    23:00 +28°C° 0 mm 3 mps 756 mmHg 85%

    23 September, Saturday

    Time Temperature Precipitation Wind Pressure Humidity
    00:00 +28°C° 0 mm 3 mps 756 mmHg 85%
    01:00 +28°C° 0 mm 2 mps 756 mmHg 85%
    02:00 +27°C° 0 mm 2 mps 755 mmHg 86%
    03:00 +27°C° 0 mm 2 mps 755 mmHg 86%
    04:00 +27°C° 0 mm 2 mps 755 mmHg 87%
    05:00 +27°C° 0 mm 2 mps 756 mmHg 87%
    06:00 +27°C° 0 mm 2 mps 756 mmHg 88%
    07:00 +29°C° 0 mm 2 mps 756 mmHg 81%
    08:00 +31°C° 0 mm 2 mps 756 mmHg 74%
    09:00 +34°C° 0 mm 2 mps 757 mmHg 66%
    10:00 +34°C° 0.1 mm 2 mps 756 mmHg 64%
    11:00 +35°C° 0.1 mm 2 mps 756 mmHg 62%
    12:00 +35°C° 0.1 mm 2 mps 756 mmHg 60%
    13:00 +34°C° 0.8 mm 3 mps 755 mmHg 67%
    14:00 +33°C° 0.8 mm 3 mps 755 mmHg 73%
    15:00 +31°C° 0.8 mm 3 mps 754 mmHg 80%
    16:00 +30°C° 0.4 mm 3 mps 755 mmHg 82%
    17:00 +29°C° 0.4 mm 3 mps 755 mmHg 85%
    18:00 +28°C° 0.4 mm 3 mps 755 mmHg 87%
    19:00 +28°C° 0 mm 3 mps 755 mmHg 87%
    20:00 +28°C° 0 mm 2 mps 756 mmHg 88%
    21:00 +28°C° 0 mm 2 mps 756 mmHg 88%
    22:00 +27°C° 0 mm 2 mps 756 mmHg 88%
    23:00 +27°C° 0 mm 2 mps 756 mmHg 89%

    24 September, Sunday

    Time Temperature Precipitation Wind Pressure Humidity
    00:00 +27°C° 0 mm 2 mps 756 mmHg 89%
    01:00 +27°C° 0 mm 2 mps 755 mmHg 89%
    02:00 +27°C° 0 mm 1 mps 755 mmHg 89%
    03:00 +27°C° 0 mm 1 mps 755 mmHg 88%
    04:00 +27°C° 0 mm 1 mps 755 mmHg 88%
    05:00 +27°C° 0 mm 1 mps 755 mmHg 88%
    06:00 +27°C° 0 mm 1 mps 756 mmHg 88%
    07:00 +29°C° 0 mm 1 mps 756 mmHg 79%
    08:00 +31°C° 0 mm 1 mps 756 mmHg 70%
    09:00 +33°C° 0 mm 1 mps 757 mmHg 60%
    10:00 +34°C° 0 mm 2 mps 756 mmHg 58%
    11:00 +35°C° 0 mm 2 mps 756 mmHg 55%
    12:00 +36°C° 0 mm 2 mps 756 mmHg 53%
    13:00 +35°C° 0 mm 2 mps 755 mmHg 55%
    14:00 +35°C° 0 mm 2 mps 755 mmHg 58%
    15:00 +34°C° 0 mm 3 mps 754 mmHg 60%
    16:00 +32°C° 0 mm 2 mps 755 mmHg 66%
    17:00 +30°C° 0 mm 2 mps 755 mmHg 72%
    18:00 +29°C° 0 mm 2 mps 755 mmHg 78%
    19:00 +29°C° 0 mm 2 mps 756 mmHg 79%
    20:00 +28°C° 0 mm 3 mps 756 mmHg 80%
    21:00 +28°C° 0 mm 3 mps 757 mmHg 82%
    22:00 +28°C° 0 mm 3 mps 756 mmHg 82%
    23:00 +28°C° 0 mm 3 mps 756 mmHg 83%

    25 September, Monday

    Time Temperature Precipitation Wind Pressure Humidity
    00:00 +28°C° 0 mm 3 mps 756 mmHg 84%
    01:00 +28°C° 0 mm 3 mps 756 mmHg 85%
    02:00 +28°C° 0 mm 3 mps 756 mmHg 86%
    03:00 +28°C° 0 mm 3 mps 755 mmHg 87%
    04:00 +28°C° 0 mm 3 mps 756 mmHg 86%
    05:00 +28°C° 0 mm 3 mps 756 mmHg 86%
    06:00 +28°C° 0 mm 3 mps 756 mmHg 86%
    07:00 +30°C° 0.1 mm 3 mps 757 mmHg 80%
    08:00 +31°C° 0.1 mm 3 mps 757 mmHg 73%
    09:00 +34°C° 0.1 mm 4 mps 757 mmHg 66%
    10:00 +34°C° 0.8 mm 4 mps 757 mmHg 69%
    11:00 +33°C° 0.8 mm 4 mps 757 mmHg 72%
    12:00 +33°C° 0.8 mm 4 mps 757 mmHg 75%
    13:00 +33°C° 0.1 mm 4 mps 756 mmHg 74%
    14:00 +33°C° 0.1 mm 3 mps 756 mmHg 72%
    15:00 +33°C° 0.1 mm 3 mps 755 mmHg 71%
    16:00 +33°C° 0 mm 4 mps 756 mmHg 75%
    17:00 +32°C° 0 mm 4 mps 756 mmHg 78%
    18:00 +30°C° 0 mm 4 mps 756 mmHg 82%
    19:00 +30°C° 0 mm 4 mps 757 mmHg 83%
    20:00 +30°C° 0 mm 4 mps 757 mmHg 85%
    21:00 +30°C° 0 mm 4 mps 757 mmHg 86%
    22:00 +29°C° 0 mm 4 mps 757 mmHg 85%
    23:00 +29°C° 0 mm 4 mps 757 mmHg 85%
    Show more